Location: City of Clear Lake
(43.1347°N, 93.3740°W)
Time: 20:18:46
(UTC+00:00)

ARIANE 6 FM1 Upper Stage - Pass Details

Date: 19 October 2024
Orbit: 558 x 596 km, 62.0° (Epoch: 11 November)

Event Time Altitude Azimuth Distance (km) Brightness Sun altitude
Rises 01:09:22 0° 326° (NW) 2,829 6.8 -19.8°
Reaches altitude 10° 01:11:43 10° 333° (NNW) 1,930 5.8 -20.2°
Enters shadow 01:15:46 43° 40° (NE) 837 3.2 -21.0°
